Regional Weather Roundup
Issued by NWS

Home | Current Version | Previous Version | Graphics & Text | Print | Product List | Glossary On
Versions: 1 2 3 4 5 6 7 8 9 10 11 12 13 14 15 16 17 18 19 20 21 22 23 24 25 26 27 28 29 30 31 32 33 34 35 36 37 38 39 40 41 42 43 44 45 46 47 48 49 50
368
ASUS44 KJAN 251103
RWRMS

MISSISSIPPI HOURLY WEATHER ROUNDUP
NATIONAL WEATHER SERVICE JACKSON MS
600 AM CDT SAT OCT 25 2014

NOTE: "FAIR: INDICATES FEW OR NO CLOUDS BELOW 12,000 FEET WITH NO
SIGNIFICANT WEATHER AND/OR OBSTRUCTIONS TO VISIBILITY.

MSZ001>002-007>008-010>013-018>021-025>028-034>036-251200-
NORTHWEST MISSISSIPPI

CITY           SKY/WX    TMP DP  RH WIND       PRES   REMARKS
CLARKSDALE     FAIR      54  54 100 CALM      30.12R
CLEVELAND      FAIR      53  53  99 CALM      30.11R
GREENWOOD      CLEAR     48  47  96 CALM      30.12S
GREENVILLE     CLEAR     55  53  93 SW3       30.11S
GRENADA          N/A    N/A N/A N/A MISG        N/A
OLIVE BRANCH   CLEAR     50  50 100 CALM      30.10S
OXFORD         FAIR      48  46  93 CALM      30.13R
TUNICA         SUNNY     52  50  93 SE5       30.11S FOG
$$

MSZ003>006-009-014>017-022>024-029>033-037>039-251200-
NORTHEAST MISSISSIPPI

CITY           SKY/WX    TMP DP  RH WIND       PRES   REMARKS
COLUMBUS AFB   CLEAR     45  44  99 SE1       30.11R
CORINTH          N/A     48  46  93 CALM      30.10S
GOLDN TRIANGLE CLEAR     45  43  93 NW3       30.10R
STARKVILLE     FAIR      45  43  93 CALM      30.12R
TUPELO         CLEAR     50  47  89 CALM      30.11R
$$

MSZ040-058-251200-
CENTRAL MISSISSIPPI

CITY           SKY/WX    TMP DP  RH WIND       PRES   REMARKS
JACKSON INTL   CLEAR     46  45  96 CALM      30.13R
JACKSON HAWKNS CLEAR     49  46  90 CALM      30.14R
MERIDIAN KEY   CLEAR     44  42  93 CALM      30.13R
MERIDIAN NAS   CLEAR     47  44  90 CALM      30.12R
RAYMOND        FAIR      45  39  81 MISG      30.14R
VICKSBURG      CLEAR     46  43  89 CALM      30.14R
$$

MSZ059>079-251200-
SOUTH MISSISSIPPI

CITY           SKY/WX    TMP DP  RH WIND       PRES   REMARKS
BROOKHAVEN     FAIR      45  45 100 CALM      30.14R
COLUMBIA         N/A    N/A N/A N/A MISG        N/A
HATTIESBURG    CLEAR     46  44  93 CALM      30.12R
MCCOMB         CLEAR     50  44  80 CALM      30.12R
NATCHEZ        CLEAR     46  43  87 CALM      30.13S
PINE BELT      CLEAR     46  41  81 CALM      30.12S
$$

MSZ080>082-251200-
COASTAL MISSISSIPPI

CITY           SKY/WX    TMP DP  RH WIND       PRES   REMARKS
BILOXI         CLEAR     54  47  77 N7        30.10R
PASCAGOULA     CLEAR     43  42  97 CALM      30.10R
GULFPORT       CLEAR     49  46  90 CALM      30.10R
$$



USA.gov is the U.S. government's official web portal to all federal, state and local government web resources and services.